Погода Аскино

Погода Аскино : погода сейчас, прогноз погоды и архив. Всё, что Вы хотите узнать о погоде Аскино!

Поиск расширенной информации на нашем сайте:

Другие новости

Новости СМИ2

Главная страница сайта

Новости сайта

02.10.2013

Напоминаем, что на нашем новом сайте вы можете получить высокодетализированные прогнозы погоды по пунктам России, СНГ и мира (включающие важные для авиации метеовеличины, такие как направление и скорость ветра, видимость, явления погоды, количество и форма облачности, нижняя и верхняя граница облачности), а также ознакомиться с разнообразными материалами по авиационной метеорологии и подборкой полезных ссылок на эту тему.

Сайт Метеоцентр.Азия посвящён разработке технологий оптимизации авиаметеорологического обслуживания, включая проектирование и перспективное создание нескольких автоматизированных авиаметеорологических систем:
- система выпуска высокодетальных прогностических карт явлений погоды для нижнего воздушного пространства по России и ближнему зарубежью;
- система верификации прогнозов TAF (выпускаемых синоптиками официальных АМСГ РФ и ближнего зарубежья) и AUTOTAF (выпускаемых сайтом Метеоцентр.Азия) - выявление ошибок, онлайн-сопоставление с фактической погодой METAR, автоматическое внесение коррективов в прогнозы при резком отклонении фактической погоды от прогноза, подсчёт оправдываемости прогнозов по элементам и в целом;
- система обработки, анализа и отображения авиаметеорологической информации для применения провайдерами метеорологической информации.

Рекомендуем: поздравления с днем рождения, поздравления с днем рождения девушке любимой женщине.

Погода Аскино - сегодня

Время (UTC), дата Ветер
(°,м/с) 
Видим.   Явления Облачность Т
(°С)
Тd
(°С)
f(%) Тe
(°С)
Pmin
(гПа)
dP
(гПа)
Po
(мм)
O2
(г/м3)
Тmin Tmax R s Состояние
почвы
03 25.02.17 170 (Ю) 8{12}  н/о    10/0 средняя 
[Ac und]
-1.9 -4.1 85 -7  1005.2  -1.2  735  298  -2      74  неравномерный
сухой снег
100% 
06 25.02.17 170 (Ю) 9{13}  4000 м  слаб. снег  10/0 средняя 
[As op]
-1.5 -2.9 90 -6  1002.5  -2.5  733  297           
09 25.02.17 180 (Ю) 8{13}  4000 м  слаб. снег  10/0 средняя 
[As op]
-0.8 -1.8 93 -5  1000.4  -2  731  296           
12 25.02.17 200 (Ю) 7{13}  10 км  {снег}  10/0 средняя 
[As op]
+0.5 -0.7 92 -3  1000.2  731  294           
15 25.02.17 200 (Ю) 6{11}  н/о    10/0 
[]
+0.7 -0.3 93 -3  1000  -0.2  731  294    +0.7     
18 25.02.17 200 (Ю) 6{10}  4000 м  слаб. дождь{снег}  10/10 300 м 
[Ns]
+0.8 -0.3 92 -3  999.5  -0.5  731  294           
21 25.02.17 180 (Ю) 7{11}  4000 м  слаб. дождь со снегом  10/10 300 м 
[Ns]
+0.4 -0.6 93 -3  997.7  -1.8  729  293           
00 26.02.17 190 (Ю) 8{13}  4000 м  слаб. снег{дождь}  10/10 300 м 
[Ns]
+0.1 -0.7 94 -4  995.5  -2.2  728  293           
03 26.02.17 200 (Ю) 6{12}  4000 м  слаб. снег  10/10 300 м 
[Ns]
+0.1 -0.6 95 -3  993.8  -1.6  726  293  -0    79  неравномерный
мокрый или
старый снег
100% 
06 26.02.17 230 (ЮЗ) 8{12}  10 км  {снег}  10/10 600 м 
[Sc]
+0.4 -0.5 94 -4  994.9  1.1  727  293           
09 26.02.17 280 (З) 8-12{15}  20000 м    10/10 600 м 
[Sc]
-3 -5.9 80 -8  999.3  3.9  730  298           
12 26.02.17 250 (З) 6{12}  20000 м    9/8 600 м средняя 
[Sc diur, vesp|Ac trans]
-3.3 -8.1 69 -7  1001.3  1.9  732  299           
15 26.02.17 250 (З) н/о    4/4 600 м 
[Sc diur, vesp]
-4.9 -9.1 72 -9  1003.3  1.7  733  302    +0.4  0.9     
18 26.02.17 220 (ЮЗ) н/о    9/9 1000 м 
[Sc]
-5.8 -9.2 77 -8  1005.4  734  303           
21 26.02.17 240 (ЮЗ) н/о    10/10 600 м 
[Sc]
-6.1 -9 80 -9  1006.5  735  304           
00 27.02.17 230 (ЮЗ) 4000 м  слаб. снег  10/10 300 м 
[Ns]
-6.1 -8.1 86 -9  1006.5  735  304           
03 27.02.17 240 (ЮЗ) н/о  {снег}  10/10 600 м 
[Sc]
-7.9 -9.8 86 -12  1007.8  1.1  736  306  -7.9    0.0  80  неравномерный
сухой снег
100% 
06 27.02.17 240 (ЮЗ) 4000 м  слаб. снег  10/0 средняя 
[As op]
-7 -10.3 77 -12  1008.8  1.1  737  306  -9.1         
09 27.02.17 230 (ЮЗ) 8-12{13}  10 км  позёмок{снег}  10/0 средняя 
[As op]
-5.5 -10.2 69 -11  1009.9  1.2  738  304           
12 27.02.17 200 (Ю) 6-10{12}  4000 м  слаб. снег  10/0 средняя 
[As op]
-4.9 -7.9 79 -9  1009.4  -0.4  737  303           
15 27.02.17 190 (Ю) 6{12}  2000 м  снег  10/0 средняя 
[As op]
-5.3 -6.9 88 -10  1008.7  -0.7  737  303    -4.4  0.5     
18 27.02.17 230 (ЮЗ) 7-12{13}  4000 м  слаб. снег  10/0 средняя 
[As op]
-4.1 -6.4 84 -9  1010.4  1.8  738  303           
21 27.02.17 240 (ЮЗ) 4{12}  4000 м  слаб. снег  10/0 средняя 
[As op]
-3.9 -6 85 -7  1012.9  2.4  740  303           
00 28.02.17 200 (Ю) 4000 м  слаб. снег  10/0 средняя 
[As op]
-3.8 -5.6 87 -5  1014  741  303           
03 28.02.17 160 (Ю) 10 км  {снег}  10/0 средняя 
[As op]
-3.6 -5.2 89 -5  1014.4  0.4  741  303  -5.3    0.7  81  неравномерный
сухой снег
100% 
Время (UTC), дата Ветер
(°,м/с) 
Видим.   Явления Облачность Т
(°С)
Тd
(°С)
f(%) Тe
(°С)
Pmin
(гПа)
dP
(гПа)
Po
(мм)
O2
(г/м3)
Тmin Tmax R s Состояние
почвы

Для получения пояснительной информации подведите курсор к названию столбца.

ПОГОДА Аскино - архив

Всё, что Вы хотите узнать о погоде Аскино - удобно и подробно!

Выберите нужную дату (начиная с 1 января 2015* года) и нажмите кнопку "Найти".
Будут отображены архивные сводки погоды по пункту Аскино, начиная с указанной даты.


Отображать данные в формате CSV (для использования в таблицах Excel)


Внимание! Наш архив погоды предназначен исключительно для личного некоммерческого использования в познавательных целях. Если Вам необходимы официальные справки о состоянии погоды (для производственных, юридических, коммерческих и т.п. целей), обращайтесь в органы Росгидромета.

*Примечание: данная дата относится к архиву по метеостанциям СССР (Россия, СНГ, Балтия).
Архив по метеостанциям Зарубежной Европы и Азии (кроме Китая) хранится 10 дней, по другим регионам земного шара (Китай, Африка, Америка, Австралия, Океания) - 1 день.

Аскино - район местоположения метеостанции


Название, широта, долгота, высота метеостанции:
Аскино 56.1°ш. 56.6°д. 207 м над ур. моря [Российская Федерация]

Дополнительная информация

В oтличие oт бoльшинства пoгoдных сайтoв мы публикуем пoдрoбную метеoинфoрмацию в детальнoм прoфессиoнальнoм фoрмате.

Характеристики температуры и влажнoсти вoздуха измеряются на высoте 2 м в тени вдали oт зданий и деревьев.
Скoрoсть ветра измеряется на высoте 10 м (на урoвне рoста челoвека скoрoсть ветра ниже в 1.5-2 раза). Если метеoстанция нахoдится в гoрoде или в лесу, тo скoрoсть ветра занижена на 2-4 м/с пo сравнению с oткрытым местoм. Скoрoсть ветра над акватoриями крупных рек и oзёр, а также на вершинах хoлмoв на 2-5 м/с выше, чем в oбычных услoвиях.
Атмoсфернoе давление в разных тoчках местнoсти мoжет значительнo oтличаться oт давления на метеoстанции, в зависимoсти oт услoвий рельефа (при пoдъёме на 10 м давление пoнижается примернo на 1 мм рт.ст.).